TimeCST,TemperatureF,Dew PointF,Humidity,Sea Level PressureIn,VisibilityMPH,Wind Direction,Wind SpeedMPH,Gust SpeedMPH,PrecipitationIn,Events,Conditions,WindDirDegrees,DateUTC
6:45 AM,8.6,5.0,85,30.17,10.0,NW,8.1,-,N/A,,Clear,310,2012-12-21 12:45:00
7:45 AM,8.6,3.2,79,30.21,10.0,NW,8.1,-,N/A,,Clear,320,2012-12-21 13:45:00
9:26 AM,10.4,5.0,79,30.24,10.0,NW,8.1,16.1,N/A,,Clear,310,2012-12-21 15:26:00
9:45 AM,10.4,5.0,79,30.25,10.0,NW,8.1,-,N/A,,Clear,320,2012-12-21 15:45:00
10:45 AM,12.2,6.8,79,30.24,10.0,NNW,8.1,-,N/A,,Clear,340,2012-12-21 16:45:00
11:45 AM,15.8,12.2,86,30.23,10.0,West,6.9,-,N/A,,Clear,280,2012-12-21 17:45:00
12:50 PM,17.6,8.6,68,30.22,10.0,West,8.1,-,N/A,,Clear,270,2012-12-21 18:50:00
1:50 PM,19.4,8.6,63,30.21,10.0,Calm,Calm,-,N/A,,Clear,0,2012-12-21 19:50:00
2:55 PM,21.2,10.4,63,30.21,10.0,West,4.6,-,N/A,,Clear,280,2012-12-21 20:55:00
3:55 PM,19.4,8.6,63,30.22,10.0,West,5.8,-,N/A,,Clear,260,2012-12-21 21:55:00
4:55 PM,17.6,8.6,68,30.22,10.0,West,5.8,-,N/A,,Clear,270,2012-12-21 22:55:00
5:45 PM,17.6,8.6,68,30.23,10.0,Calm,Calm,-,N/A,,Clear,0,2012-12-21 23:45:00
6:45 PM,15.8,8.6,73,30.24,10.0,Calm,Calm,-,N/A,,Clear,0,2012-12-22 00:45:00
7:45 PM,14.0,8.6,79,30.23,10.0,Calm,Calm,-,N/A,,Clear,0,2012-12-22 01:45:00
8:45 PM,10.4,6.8,85,30.20,10.0,Calm,Calm,-,N/A,,Clear,0,2012-12-22 02:45:00
9:14 PM,10.4,6.8,85,30.20,10.0,Calm,Calm,-,N/A,,Clear,0,2012-12-22 03:14:00
9:34 PM,10.4,6.8,85,30.19,10.0,Calm,Calm,-,N/A,,Clear,0,2012-12-22 03:34:00
9:54 PM,10.4,6.8,85,30.19,10.0,Calm,Calm,-,N/A,,Clear,0,2012-12-22 03:54:00
10:14 PM,10.4,8.6,92,30.19,10.0,Calm,Calm,-,N/A,,Clear,0,2012-12-22 04:14:00
10:34 PM,10.4,8.6,92,30.19,10.0,Calm,Calm,-,N/A,,Clear,0,2012-12-22 04:34:00
10:54 PM,10.4,8.6,92,30.18,10.0,Calm,Calm,-,N/A,,Clear,0,2012-12-22 04:54:00
11:14 PM,10.4,8.6,92,30.19,10.0,Calm,Calm,-,N/A,,Clear,0,2012-12-22 05:14:00
11:34 PM,10.4,8.6,92,30.18,10.0,Calm,Calm,-,N/A,,Clear,0,2012-12-22 05:34:00
11:54 PM,10.4,8.6,92,30.18,10.0,Calm,Calm,-,N/A,,Clear,0,2012-12-22 05:54:00